Regional Weather Roundup
Issued by NWS

Home | Current Version | Previous Version | Graphics & Text | Print | Product List | Glossary On
Versions: 1 2 3 4 5 6 7 8 9 10 11 12 13 14 15 16 17 18 19 20 21 22 23 24 25 26 27 28 29 30 31 32 33 34 35 36 37 38 39 40 41 42 43 44 45 46 47 48 49 50
000
ASUS45 KABQ 240710
RWRNM
WEATHER ROUNDUP FOR NEW MEXICO
NATIONAL WEATHER SERVICE ALBUQUERQUE NM
100 AM MDT THU APR 24 2014

NOTE: "FAIR" MEANS FEW OR NO CLOUDS BELOW 12,000 FEET AGL WITH NO
       SIGNIFICANT WEATHER OR OBSTRUCTIONS TO VISION.

      THIS PRODUCT IS RELEASED AS TWO VERSIONS.  ONE VERSION NEAR
      THE TOP OF THE HOUR CONTAINING PRELIMINARY DATA FROM ALBUQUERQUE
      AND OTHER STATIONS.  A FINAL VERSION WITH ADDITIONAL DATA IS
      ISSUED ABOUT 10 MINUTES AFTER THE HOUR.

NMZ501-503-504-510>518-240800-
NORTHWEST PLATEAU/NORTHCENTRAL MOUNTAINS

CITY           SKY/WX    TMP DP  RH WIND       PRES   REMARKS
FARMINGTON     CLEAR     43   8  23 SW5       30.02R
LOS ALAMOS     CLEAR     44  10  25 NW6G30    29.99R
SANTA FE       CLEAR     48   7  18 N16G26    29.97R
TAOS           CLEAR     36   9  32 W13       30.00R WCI  27
ANGEL FIRE     FAIR      38  11  32 W13G22    29.99R WCI  30

$$
NMZ402-403-502-505>509-240800-
WESTCENTRAL MOUNTAINS/SOUTHWEST MOUNTAINS

CITY           SKY/WX    TMP DP  RH WIND       PRES   REMARKS
GALLUP         CLEAR     34   7  32 CALM      30.07R
GRANTS         CLEAR     42  10  27 N8        30.07R
SILVER CITY    CLEAR     48   9  20 NW14      30.03S

$$
NMZ407-409-411-412-240800-
SOUTHERN DESERTS

CITY           SKY/WX    TMP DP  RH WIND       PRES   REMARKS
LORDSBURG      FAIR      54  14  20 W7        29.99R
DEMING         CLEAR     57  11  16 NW8       29.96S
LAS CRUCES     CLEAR     63   8  11 NW9       29.96R
HOLLOMAN AFB   CLEAR     55  16  21 NE9       29.93R
ALAMOGORDO     CLEAR     57  16  19 NE8       29.94R
T OR C         CLEAR     55  13  18 N3        29.96R

$$
NMZ519>523-240800-
CENTRAL VALLEYS/CENTRAL HIGHLANDS

CITY           SKY/WX    TMP DP  RH WIND       PRES   REMARKS
ALBUQUERQUE    CLEAR     53  12  19 N8        29.98R
DOUBLE EAGLE   CLEAR     48  10  22 NW18G25   29.98S
MORIARTY ARPT  FAIR      48   7  19 NW23G32   29.98R
CLINES CORNERS CLEAR     42  13  30 NW16      29.96R
BELEN          FAIR      48  13  24 NW9       30.00R
SOCORRO        FAIR      56   8  14 NW9       29.96R

$$
NMZ524>526-539-540-240800-
SOUTHCENTRAL MOUNTAINS

CITY           SKY/WX    TMP DP  RH WIND       PRES   REMARKS
RUIDOSO        CLEAR     52   9  17 W15G30    30.02R

$$
NMZ527>531-240800-
NORTHEAST HIGHLANDS/NORTHEAST PLAINS

CITY           SKY/WX    TMP DP  RH WIND       PRES   REMARKS
LAS VEGAS      CLEAR     44  10  25 N7        29.93R
RATON          PTCLDY    43  34  70 NE21G28   29.90R
CLAYTON        CLOUDY    49  32  52 N32G45    29.86R HAZE

$$
NMZ532>537-240800-
EASTCENTRAL PLAINS

CITY           SKY/WX    TMP DP  RH WIND       PRES   REMARKS
TUCUMCARI      PTCLDY    62  20  19 W15       29.77R
CANNON AFB     PTCLDY    64  20  19 W12       29.82R
CLOVIS AIRPORT PTCLDY    64  19  17 W17G23    29.85R

$$
NMZ028-029-538-240800-
SOUTHEAST PLAINS

CITY           SKY/WX    TMP DP  RH WIND       PRES   REMARKS
ROSWELL        CLEAR     68  17  14 NW14      29.83R
ARTESIA        CLEAR     64  18  16 NW15      29.83R
CARLSBAD       CLEAR     62  29  28 W12       29.80R
HOBBS          PTCLDY    64  21  19 W15       29.80S


$$



USA.gov is the U.S. government's official web portal to all federal, state and local government web resources and services.